KK5DC Weather Reports


Display with metric or nautical units.
time (UTC)temp
F
wind
direction
speed
MPH
gust
MPH
rain 1hr
in
rain 24hr
in
rain mn
in
humidity
%
barometer
mb
20260502193504 73 91 2.0 5.0 0.00 0.39 0.00 48 1022.1
20260502193004 73 327 1.0 6.0 0.00 0.39 0.00 52 1021.4
20260502192505 72 48 1.0 6.0 0.00 0.39 0.00 49 1022.1
20260502192502 72 232 1.0 6.0 0.00 0.39 0.00 49 1021.4
20260502192004 73 345 3.0 9.0 0.00 0.39 0.00 54 1021.5
20260502191508 73 104 1.0 9.0 0.00 0.39 0.00 54 1022.2
20260502191004 73 347 2.0 9.0 0.00 0.40 0.00 57 1022.2
20260502190504 72 325 2.0 7.0 0.00 0.41 0.00 52 1022.2
20260502190018 73 104 1.0 6.0 0.00 0.43 0.00 54 1022.3
20260502190013 73 69 2.0 6.0 0.00 0.43 0.00 54 1021.5
20260502185507 72 115 1.0 6.0 0.00 0.45 0.00 53 1021.6
20260502185504 72 26 2.0 6.0 0.00 0.45 0.00 53 1022.3
20260502185003 72 284 1.0 7.0 0.00 0.46 0.00 50 1022.4
20260502185000 72 330 2.0 6.0 0.00 0.46 0.00 50 1021.7
20260502184510 72 323 2.0 5.0 0.00 0.49 0.00 53 1021.7
20260502184508 72 59 2.0 7.0 0.00 0.49 0.00 53 1022.4
20260502184004 72 317 1.0 7.0 0.00 0.51 0.00 60 1021.8
20260502183507 70 301 1.0 7.0 0.00 0.52 0.00 56 1021.9
20260502183503 70 280 3.0 7.0 0.00 0.52 0.00 56 1022.5
20260502183011 70 360 0.0 9.0 0.00 0.55 0.00 57 1022.6
20260502183004 70 275 1.0 8.0 0.00 0.55 0.00 57 1021.9
20260502182506 70 352 3.0 9.0 0.00 0.56 0.00 53 1022.0
20260502182004 71 17 2.0 9.0 0.00 0.58 0.00 57 1022.2
20260502181517 70 223 2.0 8.0 0.00 0.60 0.00 57 1022.2
20260502181503 70 257 2.0 8.0 0.00 0.60 0.00 57 1022.8
20260502181003 71 60 4.0 8.0 0.00 0.61 0.00 56 1022.9
20260502180503 71 5 1.0 6.0 0.00 0.62 0.00 55 1023.0
20260502170507 68 327 2.0 7.0 0.00 0.63 0.00 56 1023.8
20260502170502 68 333 2.0 10.0 0.00 0.63 0.00 56 1023.0
20260502164006 67 285 1.0 8.0 0.00 0.63 0.00 59 1023.1
20260502164003 67 352 1.0 8.0 0.00 0.63 0.00 59 1023.8
20260502163504 67 343 2.0 8.0 0.00 0.63 0.00 58 1023.2
20260502163033 67 38 2.0 7.0 0.00 0.65 0.00 60 1023.9
20260502163006 67 322 3.0 8.0 0.00 0.65 0.00 60 1023.2
20260502162507 67 323 4.0 8.0 0.00 0.66 0.00 62 1023.3
20260502162505 67 323 2.0 6.0 0.00 0.66 0.00 62 1023.9
20260502162011 67 333 3.0 8.0 0.00 0.67 0.00 58 1023.2
20260502162006 67 360 2.0 6.0 0.00 0.67 0.00 58 1023.9
20260502161524 67 314 1.0 5.0 0.00 0.68 0.00 64 1023.2
20260502161512 67 42 1.0 5.0 0.00 0.68 0.00 64 1023.9
20260502161003 66 339 1.0 5.0 0.00 0.69 0.00 60 1023.3
20260502160506 66 34 1.0 8.0 0.00 0.70 0.00 67 1023.8
20260502160504 66 327 2.0 8.0 0.00 0.70 0.00 67 1023.2
20260502152010 63 336 2.0 5.0 0.00 0.73 0.00 75 1023.1
20260502152002 63 347 2.0 5.0 0.00 0.73 0.00 75 1023.6
20260502151518 62 71 1.0 10.0 0.00 0.73 0.00 74 1023.6
20260502151512 62 335 2.0 10.0 0.00 0.73 0.00 74 1023.1
20260502151008 62 331 3.0 10.0 0.00 0.73 0.00 75 1023.1
20260502151003 62 18 3.0 10.0 0.00 0.73 0.00 75 1023.6
20260502150509 62 360 1.0 5.0 0.00 0.74 0.00 79 1023.1
20260502150503 62 344 1.0 5.0 0.00 0.74 0.00 79 1023.5
20260502130507 50 360 0.0 2.0 0.00 1.04 0.00 95 1022.3
20260502123507 48 326 0.0 0.0 0.00 1.21 0.00 95 1021.3
20260502123503 48 360 0.0 0.0 0.00 1.21 0.00 95 1021.8
20260502123021 47 360 0.0 0.0 0.00 1.23 0.00 95 1021.7
20260502123011 47 326 0.0 0.0 0.00 1.23 0.00 95 1021.2
20260502122505 47 326 0.0 0.0 0.00 1.25 0.00 95 1021.1
20260502122503 47 360 0.0 0.0 0.00 1.25 0.00 95 1021.7
20260502122006 47 360 0.0 0.0 0.00 1.27 0.00 95 1021.6
20260502121516 47 360 0.0 0.0 0.00 1.28 0.00 95 1021.6
20260502121009 47 326 0.0 0.0 0.00 1.31 0.00 95 1020.9
20260502121007 47 360 0.0 0.0 0.00 1.31 0.00 95 1021.4
20260502120511 47 326 0.0 0.0 0.00 1.33 0.00 95 1020.7
20260502120505 47 360 0.0 0.0 0.00 1.33 0.00 95 1021.3
20260502115510 47 326 0.0 0.0 0.00 1.37 0.00 95 1020.6
20260502115508 47 360 0.0 0.0 0.00 1.37 0.00 95 1021.1
20260502115004 47 360 0.0 0.0 0.00 1.39 0.00 94 1021.2
20260502114510 47 360 0.0 0.0 0.00 1.40 0.00 94 1021.1
20260502114504 47 326 0.0 0.0 0.00 1.40 0.00 94 1020.5
20260502114006 47 360 0.0 0.0 0.00 1.40 0.00 94 1021.1
20260502114004 47 326 0.0 0.0 0.00 1.40 0.00 94 1020.5
20260502113508 47 360 0.0 0.0 0.00 1.41 0.00 94 1021.0
20260502113504 47 326 0.0 0.0 0.00 1.41 0.00 94 1020.4
20260502113010 48 360 0.0 0.0 0.00 1.42 0.00 94 1021.0
20260502113008 48 326 0.0 2.0 0.00 1.42 0.00 94 1020.3
20260502112504 48 326 0.0 2.0 0.00 1.43 0.00 94 1020.2
20260502112007 48 326 0.0 2.0 0.00 1.45 0.00 94 1020.1
20260502112004 48 360 0.0 1.0 0.00 1.45 0.00 94 1020.9
20260502111511 48 326 0.0 2.0 0.00 1.47 0.00 94 1019.9
20260502111506 48 360 0.0 1.0 0.00 1.47 0.00 94 1020.8
20260502111004 48 326 0.0 2.0 0.00 1.49 0.00 94 1019.9
20260502110508 48 326 0.0 2.0 0.00 1.50 0.00 94 1019.9
20260502110022 48 352 0.0 0.0 0.00 1.52 0.00 94 1020.8
20260502110020 48 326 0.0 2.0 0.00 1.52 0.00 94 1019.9
20260502105507 48 352 0.0 0.0 0.00 1.54 0.00 94 1020.7
20260502105504 48 326 0.0 2.0 0.00 1.54 0.00 94 1019.9
20260502105007 48 326 0.0 2.0 0.00 1.55 0.00 94 1019.8
20260502105005 48 352 0.0 2.0 0.00 1.55 0.00 94 1020.6
20260502104524 48 326 0.0 2.0 0.00 1.56 0.00 94 1019.7
20260502104521 48 352 0.0 2.0 0.00 1.56 0.00 94 1020.5
20260502104008 48 326 0.0 2.0 0.00 1.56 0.00 94 1019.6
20260502103507 48 352 0.0 2.0 0.00 1.57 0.00 94 1020.2
20260502103505 48 326 0.0 2.0 0.00 1.57 0.00 94 1019.5
20260502103019 48 352 0.0 2.0 0.00 1.57 0.00 94 1020.1
20260502103011 48 326 0.0 2.0 0.00 1.57 0.00 94 1019.5
20260502102504 49 326 0.0 2.0 0.00 1.58 0.00 94 1019.4
20260502102005 49 326 0.0 2.0 0.00 1.60 0.00 94 1019.3
20260502101512 49 360 0.0 2.0 0.00 1.61 0.00 94 1019.9
20260502101510 49 323 0.0 2.0 0.00 1.61 0.00 94 1019.2
20260502101005 49 323 1.0 2.0 0.00 1.61 0.00 94 1019.2
20260502101003 49 18 0.0 2.0 0.00 1.61 0.00 94 1019.8
20260502100508 49 352 0.0 3.0 0.00 1.61 0.00 94 1019.9
20260502100504 49 325 0.0 3.0 0.00 1.61 0.00 94 1019.1
20260502091508 50 5 1.0 3.0 0.00 1.77 0.00 94 1019.3
20260502091005 50 32 0.0 3.0 0.00 1.79 0.00 94 1019.2
20260502090505 50 333 1.0 4.0 0.00 1.81 0.00 95 1018.4
20260502090503 50 26 1.0 3.0 0.00 1.81 0.00 95 1019.0
20260502071522 49 329 0.0 2.0 0.00 2.02 0.00 94 1018.0
20260502071520 49 345 0.0 0.0 0.00 2.02 0.00 94 1018.6
20260502071010 49 329 0.0 2.0 0.00 2.03 0.00 94 1018.1
20260502071006 49 330 0.0 0.0 0.00 2.03 0.00 94 1018.7
20260502070507 49 329 0.0 2.0 0.00 2.04 0.00 94 1018.2
20260502070505 49 360 0.0 0.0 0.00 2.04 0.00 94 1018.7
20260502070020 49 360 0.0 1.0 0.00 2.06 0.00 94 1018.8
20260502070018 49 329 0.0 2.0 0.00 2.06 0.00 94 1018.3
20260502065511 50 360 0.0 2.0 0.00 2.06 0.00 94 1018.8
20260502065509 50 329 0.0 2.0 0.00 2.06 0.00 94 1018.3
20260502065010 50 329 0.0 2.0 0.00 2.06 0.00 94 1018.4
20260502065006 50 360 0.0 1.0 0.00 2.06 0.00 94 1018.8
20260502064514 50 329 0.0 2.0 0.00 2.06 0.00 94 1018.4
20260502064007 50 329 0.0 2.0 0.00 2.06 0.00 94 1018.4
20260502064004 50 347 0.0 2.0 0.00 2.06 0.00 94 1019.0
20260502063507 50 347 0.0 2.0 0.00 2.06 0.00 94 1019.2
20260502063505 50 329 0.0 2.0 0.00 2.06 0.00 94 1018.6
20260502063015 50 340 0.0 2.0 0.00 2.06 0.00 94 1019.2
20260502062510 50 313 0.0 2.0 0.00 2.06 0.00 94 1019.2
20260502062012 50 334 0.0 0.0 0.00 2.06 0.00 94 1019.1
20260502062007 50 329 0.0 2.0 0.00 2.06 0.00 94 1018.5
20260502061525 50 329 0.0 2.0 0.00 2.06 0.00 94 1018.3
20260502061523 50 334 0.0 2.0 0.00 2.06 0.00 94 1019.0
20260502061008 50 329 0.0 2.0 0.00 2.06 0.00 94 1018.3
20260502061006 50 334 0.0 2.0 0.00 2.06 0.00 94 1018.9
20260502060511 50 24 0.0 3.0 0.00 2.06 0.00 94 1019.0
20260502060509 50 329 0.0 3.0 0.00 2.06 0.00 94 1018.4
20260502060027 51 329 0.0 3.0 0.00 2.06 0.00 94 1018.4
20260502060024 51 30 0.0 3.0 0.00 2.06 0.00 94 1019.0
20260502055507 50 330 1.0 3.0 0.00 2.06 0.00 93 1018.5
20260502055006 51 5 0.0 3.0 0.00 2.06 0.00 93 1019.1
20260502054529 51 326 1.0 3.0 0.00 2.06 0.00 93 1018.5
20260502054524 51 19 0.0 3.0 0.00 2.06 0.00 93 1019.1
20260502054009 51 326 1.0 3.0 0.00 2.06 0.00 93 1018.4
20260502054003 51 24 0.0 2.0 0.00 2.06 0.00 93 1019.1
20260502053506 51 323 1.0 2.0 0.00 2.06 0.00 93 1018.4
20260502053018 51 323 0.0 4.0 0.00 2.06 0.00 93 1018.5
20260502053016 51 22 0.0 2.0 0.00 2.06 0.00 93 1019.1
20260502052511 51 9 0.0 2.0 0.00 2.06 0.00 92 1019.1
20260502052506 51 325 1.0 4.0 0.00 2.06 0.00 92 1018.4
20260502052008 51 9 0.0 3.0 0.00 2.06 0.00 92 1019.1
20260502051527 51 360 0.0 3.0 0.00 2.06 0.00 92 1019.1
20260502051522 51 330 1.0 3.0 0.00 2.06 0.00 92 1018.5
20260502051007 51 321 0.0 3.0 0.00 2.06 0.00 92 1018.4
20260502050508 51 321 1.0 4.0 0.00 2.06 0.00 91 1018.4
20260502050506 51 10 1.0 3.0 0.00 2.06 0.00 91 1019.1
20260502050018 51 18 1.0 4.0 0.00 2.06 0.00 91 1019.1
20260502050015 51 315 1.0 4.0 0.00 2.06 0.00 91 1018.3
20260502045507 51 346 0.0 4.0 0.00 2.07 2.06 91 1019.1
20260502045011 51 329 1.0 3.0 0.00 2.07 2.06 91 1018.3
20260502045003 51 113 0.0 2.0 0.00 2.07 2.06 91 1019.0
20260502044527 52 329 1.0 4.0 0.00 2.07 2.06 91 1018.2
20260502044510 52 64 0.0 4.0 0.00 2.07 2.06 91 1018.9
20260502044008 52 333 1.0 5.0 0.00 2.08 2.06 91 1018.3
20260502044004 52 347 1.0 4.0 0.00 2.08 2.06 91 1018.9
20260502043511 51 317 1.0 8.0 0.00 2.08 2.06 90 1018.2
20260502043503 51 47 2.0 8.0 0.00 2.08 2.06 90 1018.9
20260502043028 51 329 1.0 8.0 0.00 2.08 2.06 91 1018.3
20260502043008 51 349 1.0 8.0 0.00 2.08 2.06 91 1018.9
20260502042506 51 331 2.0 5.0 0.00 2.08 2.06 91 1018.2
20260502042010 51 338 0.0 9.0 0.00 2.08 2.06 90 1018.9
20260502041520 51 343 2.0 6.0 0.00 2.08 2.06 90 1018.3
20260502041508 51 32 2.0 7.0 0.00 2.08 2.06 90 1019.0
20260502041006 51 40 1.0 5.0 0.00 2.08 2.06 90 1018.8
20260502040509 51 321 1.0 10.0 0.00 2.08 2.06 90 1018.0
20260502040507 51 352 1.0 8.0 0.00 2.08 2.06 90 1018.7
20260502040026 52 340 2.0 9.0 0.00 2.08 2.06 90 1018.0
20260502040024 52 5 2.0 9.0 0.00 2.08 2.06 90 1018.7
20260502035509 52 324 2.0 9.0 0.00 2.08 2.06 90 1018.1
20260502035505 52 103 2.0 9.0 0.00 2.08 2.06 90 1018.7
20260502035007 52 290 1.0 10.0 0.00 2.08 2.06 91 1018.8
20260502034523 52 336 2.0 10.0 0.00 2.08 2.06 90 1018.3
20260502034507 52 19 1.0 10.0 0.00 2.08 2.06 90 1018.9
20260502034010 52 335 3.0 8.0 0.00 2.08 2.06 90 1018.3
20260502034003 52 36 2.0 8.0 0.00 2.08 2.06 90 1018.9
20260502033510 52 327 4.0 10.0 0.00 2.08 2.06 90 1018.1
20260502033502 52 321 2.0 10.0 0.00 2.08 2.06 90 1018.8
20260502033019 53 317 4.0 10.0 0.00 2.08 2.06 91 1018.1
20260502033009 53 351 2.0 10.0 0.00 2.08 2.06 91 1018.7
20260502032513 53 315 4.0 9.0 0.00 2.08 2.06 91 1018.0
20260502032503 53 310 2.0 9.0 0.00 2.08 2.06 91 1018.6
20260502032011 53 340 4.0 8.0 0.00 2.08 2.06 92 1017.9
20260502032006 53 13 2.0 8.0 0.00 2.08 2.06 92 1018.4
20260502031530 53 325 3.0 9.0 0.00 2.08 2.06 92 1017.8
20260502031516 53 351 2.0 9.0 0.00 2.08 2.06 92 1018.3
20260502031007 53 302 1.0 11.0 0.00 2.09 2.06 92 1018.2
20260502030509 53 335 4.0 11.0 0.00 2.09 2.06 93 1017.6
20260502030507 53 329 4.0 11.0 0.00 2.09 2.06 93 1018.2
20260502030020 53 319 1.0 5.0 0.00 2.10 2.06 93 1017.5
20260502030012 53 81 0.0 4.0 0.00 2.10 2.06 93 1018.1
20260502025515 54 9 1.0 4.0 0.00 2.11 2.06 93 1018.0
20260502025505 54 316 1.0 6.0 0.00 2.11 2.06 93 1017.4
20260502025007 54 40 1.0 9.0 0.00 2.18 2.06 93 1018.1
20260502025002 54 325 2.0 9.0 0.00 2.18 2.06 93 1017.4
20260502024517 54 352 2.0 9.0 0.00 2.21 2.06 93 1017.9
20260502024502 54 322 2.0 9.0 0.00 2.21 2.06 93 1017.3
20260502024011 54 13 2.0 6.0 0.00 2.21 2.06 93 1017.8
20260502024005 54 333 2.0 10.0 0.00 2.21 2.06 93 1017.3
20260502023508 54 46 0.0 9.0 0.00 2.21 2.06 93 1017.7
20260502023504 54 332 2.0 10.0 0.00 2.21 2.06 93 1017.3
20260502023011 54 360 2.0 9.0 0.00 2.21 2.06 93 1017.8
20260502023008 54 323 3.0 10.0 0.00 2.21 2.06 93 1017.3
20260502022505 54 325 4.0 10.0 0.00 2.21 2.06 93 1017.2
20260502022502 54 90 3.0 9.0 0.00 2.21 2.06 93 1017.6
20260502022005 54 5 3.0 8.0 0.00 2.21 2.06 93 1017.6
20260502021512 54 343 1.0 13.0 0.00 2.21 2.06 93 1017.6
20260502021502 54 333 2.0 13.0 0.00 2.21 2.06 93 1017.0
20260502021007 54 61 1.0 13.0 0.00 2.21 2.06 93 1017.4
20260502021004 54 143 2.0 10.0 0.00 2.21 2.06 93 1016.8
20260502020507 54 350 3.0 6.0 0.00 2.21 2.06 93 1017.3
20260502020020 54 329 2.0 14.0 0.00 2.21 2.06 93 1016.5
20260502020016 54 319 1.0 9.0 0.00 2.21 2.06 93 1017.2
20260502015509 54 19 3.0 9.0 0.00 2.21 2.06 93 1017.1
20260502015504 54 318 3.0 14.0 0.00 2.21 2.06 93 1016.4
20260502015010 54 329 3.0 10.0 0.00 2.21 2.06 93 1016.2
20260502015008 54 341 1.0 9.0 0.00 2.21 2.06 93 1016.9
20260502014518 54 332 2.0 10.0 0.00 2.21 2.06 94 1016.0
20260502014014 54 9 3.0 9.0 0.00 2.21 2.06 93 1016.7
20260502014002 54 327 3.0 9.0 0.00 2.21 2.06 93 1016.0
20260502013505 54 332 3.0 10.0 0.00 2.21 2.06 93 1015.9
20260502013023 54 9 3.0 11.0 0.00 2.21 2.06 93 1016.5
20260502013005 54 319 3.0 11.0 0.00 2.21 2.06 93 1015.9
20260502012507 54 333 2.0 11.0 0.00 2.21 2.06 93 1016.6
20260502012504 54 331 4.0 11.0 0.00 2.21 2.06 93 1016.0
20260502012010 54 330 1.0 5.0 0.00 2.21 2.06 93 1016.6
20260502012006 54 340 3.0 6.0 0.00 2.21 2.06 93 1015.9
20260502011511 54 17 1.0 7.0 0.00 2.21 2.06 94 1016.5
20260502011005 55 318 3.0 11.0 0.00 2.21 2.06 93 1015.8
20260502011002 55 29 1.0 11.0 0.00 2.21 2.06 93 1016.5
20260502010506 54 340 3.0 11.0 0.00 2.21 2.06 93 1016.2
20260502010501 54 333 4.0 11.0 0.00 2.21 2.06 93 1015.6
20260502010018 54 45 1.0 7.0 0.00 2.21 2.06 93 1016.0
20260502010009 54 338 1.0 6.0 0.00 2.21 2.06 93 1015.5
20260502005506 54 10 3.0 12.0 0.00 2.21 2.06 93 1015.8
20260502005010 54 267 3.0 12.0 0.00 2.21 2.06 93 1015.8
20260502005006 54 330 3.0 12.0 0.00 2.21 2.06 93 1015.3
20260502004522 54 340 2.0 11.0 0.00 2.21 2.06 93 1015.7
20260502004506 54 313 3.0 11.0 0.00 2.21 2.06 93 1015.1
20260502004006 54 350 3.0 6.0 0.00 2.21 2.06 93 1015.8
20260502003508 54 269 2.0 6.0 0.00 2.21 2.06 93 1015.5
20260502003028 54 9 1.0 8.0 0.00 2.21 2.06 93 1015.2
20260502002504 54 324 2.0 8.0 0.00 2.21 2.06 93 1015.3
20260502002502 54 117 3.0 11.0 0.00 2.21 2.06 93 1014.7
20260502002005 54 53 2.0 14.0 0.00 2.21 2.06 93 1015.5
20260502001523 54 317 1.0 14.0 0.00 2.21 2.06 93 1015.7
20260502001508 54 40 2.0 14.0 0.00 2.21 2.06 93 1015.0
20260502001007 55 338 2.0 6.0 0.01 2.21 2.06 94 1015.7
20260502001004 55 348 4.0 8.0 0.01 2.21 2.06 94 1015.0
20260502000504 55 5 2.0 10.0 0.01 2.21 2.06 94 1015.8
20260502000018 54 319 3.0 12.0 0.01 2.21 2.06 93 1015.1
20260501235508 54 329 5.0 12.0 0.01 2.21 2.06 93 1015.0
20260501235504 54 29 3.0 12.0 0.01 2.21 2.06 93 1015.8
20260501235009 55 322 4.0 12.0 0.02 2.21 2.06 93 1015.8
20260501234518 55 342 5.0 13.0 0.02 2.21 2.06 93 1015.1
20260501234010 55 348 2.0 11.0 0.03 2.21 2.06 93 1015.7
20260501234007 55 335 3.0 10.0 0.03 2.21 2.06 93 1015.1
20260501233512 55 352 3.0 9.0 0.04 2.21 2.06 93 1015.5
20260501233502 55 317 3.0 15.0 0.04 2.21 2.06 93 1014.9
20260501233015 55 306 4.0 16.0 0.05 2.21 2.06 93 1014.6
20260501232508 55 342 5.0 16.0 0.06 2.21 2.06 93 1014.6
20260501232013 55 352 6.0 16.0 0.08 2.21 2.06 93 1014.4
20260501231525 55 360 4.0 16.0 0.09 2.21 2.06 93 1015.2
20260501231506 55 315 6.0 16.0 0.09 2.21 2.06 93 1014.5
20260501231004 55 26 3.0 15.0 0.09 2.20 2.05 93 1015.1
20260501231002 55 325 3.0 15.0 0.09 2.20 2.05 93 1014.4
20260501230508 55 33 4.0 15.0 0.10 2.20 2.05 93 1015.1
20260501230505 55 334 4.0 15.0 0.10 2.20 2.05 93 1014.4
20260501230011 56 302 3.0 12.0 0.11 2.20 2.05 94 1014.9
20260501230008 56 345 5.0 13.0 0.11 2.20 2.05 94 1014.1
20260501225506 56 42 1.0 12.0 0.12 2.20 2.05 94 1014.8
20260501225008 56 352 5.0 12.0 0.12 2.19 2.04 94 1014.9
20260501225004 56 360 5.0 13.0 0.12 2.19 2.04 94 1014.1
20260501224518 56 13 5.0 13.0 0.14 2.19 2.04 94 1014.2
20260501224006 56 41 2.0 12.0 0.14 2.18 2.03 94 1014.9
20260501223506 56 318 4.0 13.0 0.14 2.17 2.02 94 1014.1
20260501223033 56 352 5.0 13.0 0.14 2.16 2.01 94 1014.0
20260501223028 56 306 4.0 13.0 0.14 2.16 2.01 94 1014.6
20260501222507 56 22 4.0 13.0 0.15 2.15 2.00 94 1014.4
20260501222502 56 300 4.0 10.0 0.15 2.15 2.00 94 1013.7
20260501222011 56 348 1.0 11.0 0.14 2.13 1.98 94 1014.6
20260501222006 56 338 2.0 11.0 0.14 2.13 1.98 94 1014.0
20260501221529 56 335 4.0 12.0 0.14 2.11 1.97 94 1014.0
20260501221520 56 321 4.0 12.0 0.14 2.11 1.97 94 1014.7
20260501221010 56 341 3.0 12.0 0.15 2.10 1.96 94 1014.0
20260501220508 56 30 2.0 11.0 0.15 2.09 1.95 94 1014.7
20260501220506 56 316 2.0 11.0 0.15 2.09 1.95 94 1014.2
20260501220016 57 259 3.0 11.0 0.15 2.08 1.94 94 1014.3
20260501220011 57 315 2.0 11.0 0.15 2.08 1.94 94 1013.7
20260501215507 57 207 1.0 10.0 0.15 2.08 1.93 94 1014.0
20260501215505 57 338 2.0 10.0 0.15 2.08 1.93 94 1013.4
20260501215004 57 318 1.0 10.0 0.14 2.07 1.92 94 1013.9
20260501214526 57 328 3.0 8.0 0.12 2.05 1.90 94 1013.3
20260501214519 57 24 3.0 10.0 0.12 2.05 1.90 94 1013.8
20260501214009 57 328 4.0 13.0 0.11 2.04 1.89 94 1012.9
20260501214004 57 273 2.0 13.0 0.11 2.04 1.89 94 1013.6
20260501213507 57 306 4.0 13.0 0.10 2.03 1.88 94 1013.1
20260501213020 57 360 4.0 13.0 0.09 2.02 1.87 94 1013.0
20260501213012 57 344 4.0 12.0 0.09 2.02 1.87 94 1012.4
20260501212506 57 342 3.0 9.0 0.08 2.00 1.85 94 1012.7
20260501212008 57 352 2.0 12.0 0.08 1.99 1.84 94 1013.1
20260501212006 57 336 1.0 13.0 0.08 1.99 1.84 94 1012.5
20260501211537 57 332 5.0 13.0 0.08 1.98 1.83 94 1012.0
20260501211524 57 28 4.0 12.0 0.08 1.98 1.83 94 1012.7
20260501211008 57 331 4.0 10.0 0.07 1.96 1.81 94 1012.1
20260501211005 57 11 2.0 9.0 0.07 1.96 1.81 94 1012.8
20260501210507 57 333 2.0 10.0 0.07 1.95 1.80 94 1012.7
20260501210034 58 326 3.0 12.0 0.08 1.94 1.79 94 1011.6
20260501210028 58 360 2.0 10.0 0.08 1.94 1.79 94 1012.4
20260501205509 58 292 1.0 14.0 0.09 1.93 1.78 94 1012.0
20260501205502 58 317 2.0 14.0 0.09 1.93 1.78 94 1011.2
20260501205007 58 79 2.0 14.0 0.10 1.93 1.78 93 1011.9
20260501205002 58 333 4.0 14.0 0.10 1.93 1.78 93 1011.1
20260501204524 58 113 2.0 14.0 0.11 1.93 1.78 94 1011.7
20260501204513 58 320 3.0 13.0 0.11 1.93 1.78 94 1010.9
20260501204006 59 308 3.0 9.0 0.11 1.93 1.78 93 1011.5
20260501204003 59 310 5.0 12.0 0.11 1.93 1.78 93 1010.9
20260501203506 59 311 3.0 9.0 0.11 1.93 1.78 94 1012.0
20260501203025 59 165 2.0 11.0 0.11 1.93 1.78 94 1011.6
20260501203017 59 352 1.0 11.0 0.11 1.93 1.78 94 1012.4
20260501202507 59 314 4.0 11.0 0.10 1.92 1.77 94 1011.5
20260501202009 58 337 4.0 11.0 0.09 1.91 1.76 94 1011.9
20260501202007 58 348 3.0 9.0 0.09 1.91 1.76 94 1012.4
20260501201518 58 319 5.0 10.0 0.08 1.90 1.75 94 1012.9
20260501201516 58 16 2.0 9.0 0.08 1.90 1.75 94 1013.3
20260501201015 58 339 3.0 10.0 0.08 1.89 1.74 94 1012.5
20260501201008 58 24 1.0 10.0 0.08 1.89 1.74 94 1013.1
20260501200515 58 352 4.0 10.0 0.08 1.88 1.73 94 1013.0
20260501200506 58 339 3.0 10.0 0.08 1.88 1.73 94 1013.6
20260501200019 58 341 3.0 11.0 0.08 1.86 1.71 94 1012.6
20260501200016 58 13 3.0 11.0 0.08 1.86 1.71 94 1013.2
20260501195509 58 332 2.0 11.0 0.08 1.84 1.69 94 1013.2
20260501195507 58 336 3.0 11.0 0.08 1.84 1.69 94 1012.8
20260501195015 58 338 2.0 5.0 0.08 1.87 1.68 94 1013.5
20260501195003 58 52 2.0 5.0 0.09 1.88 1.68 94 1013.9
20260501194529 58 313 1.0 6.0 0.10 1.97 1.67 94 1014.4
20260501194513 58 342 0.0 6.0 0.10 1.98 1.67 94 1015.1
20260501194008 58 317 2.0 10.0 0.12 2.11 1.67 94 1013.4
20260501194003 58 9 1.0 10.0 0.12 2.11 1.67 94 1014.1